Location: Albany
(35.0000°S, 118.0000°E)
Time: 04:51:06
(UTC-05:00)

SJ-6B - Visible Passes

Search period start: 17 December 2017 00:00
Search period end: 27 December 2017 00:00
Orbit: 512 x 583 km, 97.7° (Epoch: 16 December)

Date Brightness Start Highest point End Pass type
(mag) Time Alt. Az. Time Alt. Az. Time Alt. Az.
17 Dec 3.1 06:47:38 10° SSE 06:51:33 50° E 06:55:30 10° N visible
17 Dec 6.2 08:24:51 10° SW 08:25:44 11° WSW 08:26:37 10° W visible
18 Dec 3.3 06:42:32 10° SSE 06:46:24 43° E 06:50:16 10° N visible
18 Dec 6.0 08:18:58 10° SW 08:20:38 12° WSW 08:22:20 10° W visible
19 Dec 5.9 08:13:21 10° SW 08:15:32 14° WSW 08:17:44 10° W visible
20 Dec 5.8 08:07:52 10° SSW 08:10:26 16° WSW 08:13:01 10° WNW visible
21 Dec 5.7 08:02:27 10° SSW 08:05:20 19° WSW 08:08:13 10° WNW visible
22 Dec 5.5 07:57:05 10° SSW 08:00:13 22° WSW 08:03:22 10° WNW visible
23 Dec 5.3 07:51:44 10° SSW 07:55:06 25° WSW 07:58:28 10° NW visible
24 Dec 5.0 07:46:26 10° SSW 07:49:58 29° WSW 07:53:31 10° NW visible
25 Dec 4.7 07:41:09 10° S 07:44:51 33° WSW 07:48:33 10° NW visible
26 Dec 4.5 07:35:54 10° S 07:39:43 38° WSW 07:43:33 10° NW visible
